Location: Ocean City
(38.3360°N, 75.0850°W)
Time: 06:35:33
(UTC-04:00)

STARS - Pass Details

Date: 21 May 2019
Orbit: 625 x 640 km, 98.3° (Epoch: 15 June)

Event Time Altitude Azimuth Distance (km) Brightness Sun altitude
Rises 20:58:33 0° 8° (N) 2,947 ? -9.0°
Reaches altitude 10° 21:00:47 10° 6° (N) 2,032 ? -9.4°
Maximum altitude 21:05:08 61° 286° (WNW) 720 ? -10.1°
Drops below altitude 10° 21:09:27 10° 206° (SSW) 2,008 ? -10.8°
Sets 21:11:39 0° 203° (SSW) 2,909 ? -11.1°
